ImprimablePdf
Brussels, 10/10/2010, BEL - Brussels Marathon & Half Marathon
Liste des rapports > Half Marathon - Classement + Video
Recherche: Page: [1]
67 Entrées
 
Have a look to your pictures by clicking on the Sportograf Icon in the left side!

Les réclamations ne sont plus acceptées, les résultats sont considérés comme définitifs.
RangNrNomAgeIOCTempsTkmMoy.ScrLocalité
Vos photos grâce à Sportograf1.6725DUPRE Claude61FRA1:29:004:14 14.22226BEAUCROISSANT
Vos photos grâce à Sportograf2.9540DEKENS Romain62BEL1:29:194:15 14.17240GANSHOREN
Vos photos grâce à Sportograf3.3454MAMMERICKX Francis62BEL1:37:214:37 13.00671BRUXELLES 20
Vos photos grâce à Sportograf4.4416OGATA Yoshiaki61JPN1:38:574:42 12.79791TOKYO
Vos photos grâce à Sportograf5.4353MATHYS Jean-Marie62BEL1:38:584:42 12.79792TERVUREN
Vos photos grâce à Sportograf6.3479CALVI Luc60BEL1:39:404:44 12.70851BRUXELLES 17
Vos photos grâce à Sportograf7.6635CLAES Jean Pierre65BEL1:39:594:45 12.66883 GRIMBERGEN
Vos photos grâce à Sportograf8.3218JACOBS Joseph62BEL1:42:224:52 12.371108EKEREN (ANTWERPEN)
Vos photos grâce à Sportograf9.7347GRAU Jean-Francois61FRA1:44:304:58 12.111329ILLKIRCH-GRAFFENSTADEN
Vos photos grâce à Sportograf10.3319CALCAGNO Gaetano65DEU1:46:405:04 11.871563ALTENWALD
Vos photos grâce à Sportograf11.7769CLAUWERS Jean-Pierre61BEL1:49:075:11 11.601817ZONHOVEN
Vos photos grâce à Sportograf12.7895VAN GOSSUM Luc62BEL1:49:085:11 11.601820BRUXELLES
Vos photos grâce à Sportograf13.5061DE GROOT Jan63NLD1:50:335:15 11.451977KROPSWOLDE
Vos photos grâce à Sportograf14.9526GAILLARD Jacques60BEL1:51:105:17 11.392052BRUXELLES 7
Vos photos grâce à Sportograf15.7450STERCKX Claude63BEL1:51:115:17 11.392054BRUXELLES
Vos photos grâce à Sportograf16.7852QUINET Albert62BEL1:51:165:17 11.382066STROMBEEK-BEVER
Vos photos grâce à Sportograf17.6303DIARIO Mario61ITA1:52:025:19 11.302149ROMA
Vos photos grâce à Sportograf18.3009CREPAZ Peter63DEU1:52:115:20 11.282168SAUERLACH
Vos photos grâce à Sportograf19.7173GRULOIS Joseph61BEL1:52:185:20 11.272187TOURNAI
Vos photos grâce à Sportograf20.4868NOTAERT Gilbert65BEL1:53:205:23 11.172313BRUSSEL
Vos photos grâce à Sportograf21.7258AELVOET Willem63BEL1:54:065:25 11.092409OUDERGEM
Vos photos grâce à Sportograf22.4194VEENSTRA Jan62NLD1:55:065:28 11.002519ROTTERDAM
Vos photos grâce à Sportograf23.5861FEENSTRA Jan60NLD1:55:585:30 10.922622UTRECHT
Vos photos grâce à Sportograf24.4978WIERINGA Piet60NLD1:56:375:32 10.852692ROTTERDAM
Vos photos grâce à Sportograf25.5300CUYCKENS Victor60BEL1:57:385:35 10.762798BRAIVES
Vos photos grâce à Sportograf26.6803FLANDROY Pierre62BEL1:58:195:37 10.702884ECAUSSINNES
Vos photos grâce à Sportograf27.5612TIMMERMANS Rik61BEL1:58:275:37 10.692902ZEEBRUGGE
Vos photos grâce à Sportograf28.9323NEVEN Johan60BEL1:58:315:38 10.682911
Vos photos grâce à Sportograf29.8299ELLENBROEK Theo641:58:385:38 10.672930
Vos photos grâce à Sportograf30.6134MARTIN Denis63FRA1:59:165:40 10.612993COLOMBES
Vos photos grâce à Sportograf31.5294VANDERCRUYSSEN Jean-Pierre61FRA1:59:425:41 10.573040BORDEAUX
Vos photos grâce à Sportograf32.5254PALOSCHI Roberto63FRA2:00:195:43 10.523111LANDRICOURT
Vos photos grâce à Sportograf33.9910DE SOUSA Vitor Rui60BEL2:00:395:44 10.493151AUDERGHEM
Vos photos grâce à Sportograf34.7483STUEREBAUT Marc60BEL2:01:425:47 10.403241OPWIJK
Vos photos grâce à Sportograf35.3743HALES Richard64GBR2:01:515:47 10.393256BEDFORD
Vos photos grâce à Sportograf36.3846VAN KONINGSVELD Jan60NLD2:02:115:48 10.363282ALMERE
Vos photos grâce à Sportograf37.3734CHEETHAM John64GBR2:02:205:48 10.353297BEDFORD
Vos photos grâce à Sportograf38.3878HAVERKOORN Boudewijn64NLD2:02:235:49 10.343303ROTTERDAM
Vos photos grâce à Sportograf39.8390SIMON Jacques60FRA2:03:155:51 10.273375ROUBAIX
Vos photos grâce à Sportograf40.9609MARBAIX Lucien61BEL2:04:275:54 10.173469BRUXELLES 18
Vos photos grâce à Sportograf41.6154WEIS Leon60LUX2:04:465:55 10.153502BERELDANGE
Vos photos grâce à Sportograf42.6156THIELEN Herbert62DEU2:04:465:55 10.153503TRIER
Vos photos grâce à Sportograf43.9366VANGERMEERSCH Roland63BEL2:05:065:56 10.123527MANAGE
Vos photos grâce à Sportograf44.3711VAN DER STOK Peter61NLD2:05:215:57 10.103549HELMOND
Vos photos grâce à Sportograf45.3596COLSTRUP Ole62BEL2:05:265:57 10.093561OVERIJSE
Vos photos grâce à Sportograf46.5749ARVIDSSON Torsten61BEL2:06:276:00 10.013635BRUXELLES 4
Vos photos grâce à Sportograf47.4183SPRING Kurt62CHE2:06:316:00 10.003644LONAY
Vos photos grâce à Sportograf48.9656RIGOT Serge62BEL2:07:346:03 9.923724BRUXELLES
Vos photos grâce à Sportograf49.9316MACKINTOSH Edouard62BEL2:08:166:05 9.873790OVERIJSE
Vos photos grâce à Sportograf50.4494BONNANT Michel61FRA2:09:516:10 9.753900VANNES
Vos photos grâce à Sportograf51.3643VAN WESENBEECK Georges62BEL2:10:426:12 9.683958ANTWERPEN
Vos photos grâce à Sportograf52.9953PRIOR David63GBR2:11:196:14 9.643982COPLE BEDFORD
Vos photos grâce à Sportograf53.5094PATOCKA George63CAN2:11:416:15 9.614011EDMONTON, ALBERTA
Vos photos grâce à Sportograf54.6693VANHERCK Jaen60BEL2:12:056:16 9.584032HERMEE
Vos photos grâce à Sportograf55.5809BERLEMONT Jean-Louis64BEL2:12:356:18 9.554050KOKSIJDE
Vos photos grâce à Sportograf56.4151DE RAAY Theo61NLD2:12:516:18 9.534065STEENBERGEN
Vos photos grâce à Sportograf57.7268VERBIEST Werner60BEL2:13:186:20 9.504097OOSTENDE
Vos photos grâce à Sportograf58.8127MULLIE Guy64BEL2:14:136:22 9.434145MEISE
Vos photos grâce à Sportograf59.3771KARLSSON Lars62SWE2:16:446:29 9.264273?STANSJO
Vos photos grâce à Sportograf60.3811VERHAGEN Hans63NLD2:17:166:31 9.224294ROTTERDAM
Vos photos grâce à Sportograf61.3532BEUMER Hans60NLD2:20:376:40 9.004417LELYSTAD
Vos photos grâce à Sportograf62.9624VITTET Patrick61BEL2:24:036:50 8.794523BRUXELLES 18
Vos photos grâce à Sportograf63.9216CARDON Jaak63BEL2:24:486:52 8.744557BRUGGE
Vos photos grâce à Sportograf64.5126MASON Franco60ITA2:26:286:57 8.644605CASSANO MAGNAGO
Vos photos grâce à Sportograf65.7709VELDEMAN Francis60BEL2:27:297:00 8.584621TREMELO
Vos photos grâce à Sportograf66.6442HARKONEN Hannu62FIN2:39:127:33 7.954762NUMMINEN
Vos photos grâce à Sportograf67.9225COLLET Georges64BEL2:40:537:38 7.874777LIEGE
DNF: abandon; DSQ: disqualifié; Vitesse en km/h
ChronoRace - Electronic Timing - www.chronorace.be